EZY1818 LIRF-LIMC

Flight info

Callsign EZY1818
Flight time N/A
Altitude 36000
Route NEMBO DCT UPDIN DCT SPEZI DCT IDONA DCT MEBUR
Aircraft A320/M-SDE3FGHIRWY/LB1

Departure

Time 2026-05-04 07:02
Airport Rome–Fiumicino Leonardo da Vinci International Airport (LIRF)

Arrival

Time N/A
Airport Milan Malpensa International Airport (LIMC)
Time Latitude Longitude Altitude Speed Heading
2026-05-04 06:50 41.79707 12.25840 14 ft 0 kts 115°
2026-05-04 06:51 41.79712 12.25826 16 ft 2 kts 115°
2026-05-04 06:51 41.79719 12.25806 15 ft 2 kts 115°
2026-05-04 06:52 41.79725 12.25783 17 ft 3 kts 84°
2026-05-04 06:52 41.79720 12.25761 16 ft 3 kts 48°
2026-05-04 06:52 41.79706 12.25746 15 ft 3 kts 11°
2026-05-04 06:52 41.79690 12.25745 14 ft 0 kts 14°
2026-05-04 06:55 41.79712 12.25763 16 ft 10 kts 34°
2026-05-04 06:55 41.79725 12.25773 15 ft 0 kts 28°
2026-05-04 06:57 41.80282 12.26075 14 ft 17 kts 24°
2026-05-04 06:58 41.80393 12.26144 17 ft 18 kts 32°
2026-05-04 06:58 41.80476 12.26179 16 ft 4 kts 358°
2026-05-04 06:58 41.80501 12.26184 16 ft 6 kts 19°
2026-05-04 06:58 41.80546 12.26302 16 ft 18 kts 71°
2026-05-04 06:59 41.80591 12.26467 17 ft 20 kts 70°
2026-05-04 06:59 41.80642 12.26651 16 ft 23 kts 67°
2026-05-04 06:59 41.80705 12.26878 14 ft 25 kts 70°
2026-05-04 06:59 41.80778 12.27043 13 ft 19 kts 15°
2026-05-04 07:01 41.80943 12.26877 15 ft 0 kts 250°
2026-05-04 07:01 41.80922 12.26800 13 ft 40 kts 250°
2026-05-04 07:02 41.80707 12.26023 18 ft 135 kts 249°
2026-05-04 07:02 41.80330 12.24587 362 ft 179 kts 251°
2026-05-04 07:02 41.79883 12.22932 1145 ft 201 kts 248°
2026-05-04 07:02 41.79400 12.21050 2043 ft 227 kts 254°
2026-05-04 07:03 41.79189 12.18826 2962 ft 252 kts 269°
2026-05-04 07:03 41.79428 12.16443 4131 ft 265 kts 283°
2026-05-04 07:03 41.80155 12.14129 5082 ft 274 kts 299°
2026-05-04 07:03 41.81362 12.12119 6053 ft 281 kts 315°
2026-05-04 07:04 41.82939 12.10524 7025 ft 286 kts 323°
2026-05-04 07:04 41.84578 12.08998 8065 ft 288 kts 323°
2026-05-04 07:04 41.86228 12.07453 9031 ft 290 kts 323°
2026-05-04 07:04 41.87889 12.05890 10006 ft 293 kts 323°
2026-05-04 07:05 41.89584 12.04287 10641 ft 308 kts 323°
2026-05-04 07:05 41.91404 12.02561 10963 ft 332 kts 323°
2026-05-04 07:05 41.93337 12.00727 11518 ft 345 kts 323°
2026-05-04 07:05 41.95315 11.98850 12290 ft 351 kts 324°
2026-05-04 07:06 41.99341 11.95043 13891 ft 361 kts 324°
2026-05-04 07:06 42.01407 11.93090 14605 ft 366 kts 324°
2026-05-04 07:06 42.03488 11.91117 15302 ft 370 kts 324°
2026-05-04 07:07 42.05602 11.89109 16006 ft 374 kts 324°
2026-05-04 07:08 42.21068 11.74350 20605 ft 401 kts 323°
2026-05-04 07:09 42.23349 11.72163 21277 ft 403 kts 323°
2026-05-04 07:09 42.25642 11.69967 21919 ft 406 kts 323°
2026-05-04 07:09 42.27955 11.67751 22556 ft 409 kts 323°
2026-05-04 07:09 42.30277 11.65521 23183 ft 411 kts 323°
2026-05-04 07:10 42.32615 11.63272 23779 ft 414 kts 323°
2026-05-04 07:10 42.34967 11.61004 24270 ft 416 kts 322°
2026-05-04 07:12 42.51813 11.44764 27481 ft 433 kts 322°
2026-05-04 07:12 42.54268 11.42381 27903 ft 435 kts 322°
2026-05-04 07:12 42.56736 11.39984 28324 ft 438 kts 322°
2026-05-04 07:12 42.59220 11.37569 28727 ft 440 kts 322°
2026-05-04 07:13 42.61714 11.35144 29115 ft 442 kts 322°
2026-05-04 07:13 42.64223 11.32700 29498 ft 445 kts 322°
2026-05-04 07:13 42.66743 11.30243 29867 ft 447 kts 321°
2026-05-04 07:14 42.76849 11.20368 31033 ft 455 kts 321°
2026-05-04 07:14 42.79417 11.17859 31387 ft 454 kts 321°
2026-05-04 07:15 42.81973 11.15356 31772 ft 452 kts 321°
2026-05-04 07:15 42.84526 11.12852 32161 ft 451 kts 321°
2026-05-04 07:15 42.87067 11.10359 32560 ft 450 kts 321°
2026-05-04 07:15 42.89601 11.07869 32948 ft 448 kts 321°
2026-05-04 07:16 42.92128 11.05382 33336 ft 447 kts 321°
2026-05-04 07:16 42.94642 11.02903 33731 ft 446 kts 321°
2026-05-04 07:16 42.97152 11.00426 34119 ft 445 kts 320°
2026-05-04 07:16 42.99660 10.97952 34471 ft 444 kts 320°
2026-05-04 07:17 43.02155 10.95488 34814 ft 443 kts 320°
2026-05-04 07:17 43.04648 10.93020 35158 ft 442 kts 320°
2026-05-04 07:17 43.07132 10.90558 35513 ft 441 kts 321°
2026-05-04 07:17 43.09609 10.88102 35843 ft 439 kts 321°
2026-05-04 07:18 43.12085 10.85650 36111 ft 439 kts 321°
2026-05-04 07:18 43.14563 10.83209 36160 ft 438 kts 321°
2026-05-04 07:18 43.19485 10.78412 36166 ft 437 kts 321°
2026-05-04 07:19 43.24411 10.73550 36163 ft 436 kts 321°
2026-05-04 07:19 43.29352 10.68601 36168 ft 437 kts 320°
2026-05-04 07:20 43.34220 10.63707 36170 ft 437 kts 321°
2026-05-04 07:20 43.39123 10.58777 36174 ft 437 kts 320°
2026-05-04 07:22 43.58757 10.38944 36176 ft 438 kts 320°
2026-05-04 07:23 43.63671 10.33966 36175 ft 438 kts 320°
2026-05-04 07:23 43.68585 10.28981 36179 ft 438 kts 320°
2026-05-04 07:24 43.73495 10.23975 36176 ft 438 kts 320°
2026-05-04 07:24 43.78397 10.18957 36178 ft 439 kts 320°
2026-05-04 07:26 43.98027 9.98827 36181 ft 439 kts 320°
2026-05-04 07:27 44.02929 9.93782 36183 ft 439 kts 320°
2026-05-04 07:27 44.07833 9.88713 36185 ft 439 kts 320°
2026-05-04 07:28 44.12731 9.83639 36184 ft 439 kts 320°
2026-05-04 07:28 44.17627 9.78557 36178 ft 439 kts 320°
2026-05-04 07:29 44.22489 9.73498 36175 ft 439 kts 320°
2026-05-04 07:29 44.27381 9.68396 36168 ft 439 kts 320°
2026-05-04 07:30 44.32277 9.63291 36164 ft 439 kts 320°
2026-05-04 07:30 44.37197 9.58143 34903 ft 450 kts 319°
2026-05-04 07:31 44.39724 9.55482 33639 ft 458 kts 319°
2026-05-04 07:31 44.42288 9.52781 32321 ft 464 kts 319°
2026-05-04 07:33 44.60914 9.33191 23045 ft 472 kts 321°
2026-05-04 07:33 44.63515 9.30440 22099 ft 466 kts 321°
2026-05-04 07:33 44.66090 9.27707 21160 ft 461 kts 321°
2026-05-04 07:33 44.68636 9.24999 20298 ft 457 kts 321°
2026-05-04 07:34 44.71155 9.22313 19501 ft 453 kts 321°
2026-05-04 07:34 44.73653 9.19648 18733 ft 449 kts 321°
2026-05-04 07:34 44.75929 9.16695 17949 ft 443 kts 309°
2026-05-04 07:34 44.77622 9.13163 17539 ft 426 kts 298°
2026-05-04 07:35 44.79052 9.09685 17335 ft 395 kts 298°
2026-05-04 07:35 44.80396 9.06480 17196 ft 366 kts 298°
2026-05-04 07:35 44.81653 9.03508 17069 ft 341 kts 298°
2026-05-04 07:35 44.82829 9.00730 16938 ft 320 kts 298°
2026-05-04 07:36 44.83926 8.98122 16806 ft 300 kts 297°
2026-05-04 07:36 44.84951 8.95665 16677 ft 282 kts 297°